Location: Hawks Ness
(60.2333°N, 1.1667°W)
Time: 08:33:21
(UTC+00:00)

PSLV R/B - Pass Details

Date: 22 October 2019
Orbit: 503 x 581 km, 97.8° (Epoch: 14 November)

Event Time Altitude Azimuth Distance (km) Brightness Sun altitude
Rises 05:56:33 0° 14° (NNE) 2,644 7.4 -8.6°
Reaches altitude 10° 05:58:41 10° 11° (N) 1,745 6.4 -8.3°
Maximum altitude 06:02:21 55° 293° (WNW) 618 3.7 -7.9°
Drops below altitude 10° 06:05:58 10° 215° (SW) 1,719 6.1 -7.4°
Sets 06:08:03 0° 211° (SSW) 2,600 7.0 -7.2°
